Nampa, ID

3:42 PM MST on December 02, 2016 (GMT -0700)
Nampa

Weather History for KMAN - May, 2014

Change the Weather History Date:

Thursday, May 8, 2014

  Actual Average (KBOI) Record (KBOI)
Temperature  
Mean Temperature 50 °F 57 °F  
Max Temperature 69 °F 69 °F 94 °F (1987)
Min Temperature 32 °F 44 °F 28 °F (2002)
Degree Days  
Heating Degree Days 14 9  
Month to date heating degree days 80  
Since 1 July heating degree days 5304  
Cooling Degree Days 0 1  
Month to date cooling degree days 7  
Year to date cooling degree days 10  
Moisture  
Dew Point 35 °F    
Average Humidity 60    
Maximum Humidity 100    
Minimum Humidity 21    
Precipitation  
Precipitation 0.04 in 0.05 in 0.74 in (1979)
Month to date precipitation 0.37  
Year to date precipitation 5.22  
Snow  
Snow 0.00 in 0.00 in 0.80 in (1983)
Month to date snowfall 0.0  
Since 1 July snowfall 19.2  
Snow Depth -    
Sea Level Pressure  
Sea Level Pressure 29.85 in    
Wind  
Wind Speed 4 mph (SSE)    
Max Wind Speed 14 mph    
Max Gust Speed 24 mph    
Visibility 10 miles    
Events      
T = Trace of Precipitation, MM = Missing Value Source: NWS Daily Summary

Daily Weather History Graph

Daily Weather History Graph

Search for Another Location

Airport or City:

Trip Planner

Search our weather history database for the weather conditions in past years. The results will help you decide how hot, cold, wet, or windy it might be!

Date:

Astronomy

May. 08, 2014 Rise Set
Actual Time 6:29 AM MDT 8:56 PM MDT
Civil Twilight 5:57 AM MDT 9:28 PM MDT
Nautical Twilight 5:16 AM MDT 10:09 PM MDT
Astronomical Twilight 4:31 AM MDT 10:54 PM MDT
Moon 2:50 PM MDT (5/8) 3:14 AM MDT (5/8)
Length of Visible Light 15h 31m
Length of Day
14h 27m
Waxing Gibbous, 65% of the Moon is Illuminated
May 8
Waxing Gibbous
May 14
Full
May 21
Last Quarter
May 28
New
Jun 5
First Quarter

Hourly Weather History & Observations

Time (MDT) Temp. Windchill Dew Point Humidity Pressure Visibility Wind Dir Wind Speed Gust Speed Precip Events Conditions
12:15 AM 46.4 °F - 30.2 °F 53% 29.87 in 10.0 mi Calm Calm - N/A   Clear
12:35 AM 44.6 °F 43.1 °F 32.0 °F 61% 29.88 in 10.0 mi SW 3.5 mph - N/A   Clear
12:55 AM 44.6 °F 43.1 °F 32.0 °F 61% 29.88 in 10.0 mi West 3.5 mph - N/A   Clear
1:15 AM 46.4 °F 44.3 °F 32.0 °F 57% 29.88 in 10.0 mi West 4.6 mph - N/A   Clear
1:35 AM 46.4 °F 44.3 °F 32.0 °F 57% 29.88 in 10.0 mi West 4.6 mph - N/A   Clear
2:55 AM 41.0 °F - 32.0 °F 70% 29.88 in 10.0 mi Calm Calm - N/A   Clear
3:15 AM 41.0 °F - 32.0 °F 70% 29.88 in 10.0 mi Calm Calm - N/A   Clear
3:35 AM 41.0 °F - 32.0 °F 70% 29.88 in 10.0 mi Calm Calm - N/A   Clear
3:55 AM 35.6 °F - 33.8 °F 93% 29.89 in 10.0 mi Calm Calm - N/A   Clear
4:15 AM 37.4 °F - 33.8 °F 87% 29.89 in 10.0 mi Calm Calm - N/A   Clear
4:35 AM 37.4 °F - 33.8 °F 87% 29.89 in 10.0 mi Calm Calm - N/A   Clear
4:55 AM 33.8 °F - 32.0 °F 93% 29.89 in 10.0 mi Calm Calm - N/A   Clear
5:15 AM 33.8 °F 30.8 °F 32.0 °F 93% 29.90 in 10.0 mi SSE 3.5 mph - N/A   Clear
5:35 AM 32.0 °F - 32.0 °F 100% 29.90 in 10.0 mi Calm Calm - N/A   Clear
5:55 AM 32.0 °F 28.7 °F 32.0 °F 100% 29.91 in 10.0 mi East 3.5 mph - N/A   Clear
6:15 AM 33.8 °F 30.8 °F 32.0 °F 93% 29.91 in 10.0 mi ESE 3.5 mph - N/A   Clear
6:35 AM 35.6 °F 31.7 °F 32.0 °F 87% 29.91 in 10.0 mi SE 4.6 mph - N/A   Clear
6:55 AM 32.0 °F 28.7 °F 32.0 °F 100% 29.91 in 10.0 mi SSE 3.5 mph - N/A   Clear
7:15 AM 33.8 °F 29.6 °F 32.0 °F 93% 29.92 in 10.0 mi SE 4.6 mph - N/A   Clear
7:35 AM 37.4 °F 32.8 °F 32.0 °F 81% 29.92 in 10.0 mi SE 5.8 mph - N/A   Clear
7:55 AM 39.2 °F 35.9 °F 33.8 °F 81% 29.92 in 10.0 mi SE 4.6 mph - N/A   Clear
8:15 AM 41.0 °F 38.0 °F 35.6 °F 81% 29.92 in 10.0 mi SE 4.6 mph - N/A   Clear
8:35 AM 44.6 °F 42.2 °F 35.6 °F 71% 29.92 in 10.0 mi SSE 4.6 mph - N/A   Clear
8:55 AM 46.4 °F 45.2 °F 35.6 °F 66% 29.93 in 10.0 mi SE 3.5 mph - N/A   Clear
9:15 AM 48.2 °F - 35.6 °F 62% 29.93 in 10.0 mi SSE 3.5 mph - N/A   Clear
9:35 AM 50.0 °F - 37.4 °F 62% 29.93 in 10.0 mi Calm Calm - N/A   Clear
9:55 AM 53.6 °F - 37.4 °F 54% 29.92 in 10.0 mi SE 4.6 mph - N/A   Clear
10:15 AM 55.4 °F - 35.6 °F 47% 29.91 in 10.0 mi ESE 8.1 mph - N/A   Clear
10:35 AM 57.2 °F - 32.0 °F 38% 29.91 in 10.0 mi SE 5.8 mph - N/A   Clear
11:15 AM 60.8 °F - 32.0 °F 34% 29.90 in 10.0 mi SE 5.8 mph - N/A   Clear
11:35 AM 60.8 °F - 32.0 °F 34% 29.90 in 10.0 mi ESE 8.1 mph - N/A   Clear
11:55 AM 62.6 °F - 32.0 °F 32% 29.90 in 10.0 mi SSE 5.8 mph - N/A   Clear
12:15 PM 62.6 °F - 32.0 °F 32% 29.89 in 10.0 mi SE 6.9 mph - N/A   Clear
12:35 PM 64.4 °F - 32.0 °F 30% 29.88 in 10.0 mi SSE 5.8 mph - N/A   Clear
12:55 PM 64.4 °F - 32.0 °F 30% 29.87 in 10.0 mi SE 4.6 mph - N/A   Clear
1:15 PM 64.4 °F - 30.2 °F 28% 29.86 in 10.0 mi SSE 6.9 mph - N/A   Clear
1:35 PM 64.4 °F - 30.2 °F 28% 29.85 in 10.0 mi ESE 5.8 mph - N/A   Clear
1:55 PM 66.2 °F - 30.2 °F 26% 29.84 in 10.0 mi ESE 4.6 mph - N/A   Clear
2:15 PM 66.2 °F - 30.2 °F 26% 29.83 in 10.0 mi SSE 5.8 mph - N/A   Clear
2:35 PM 68.0 °F - 28.4 °F 23% 29.82 in 10.0 mi Calm Calm - N/A   Clear
2:55 PM 69.8 °F - 30.2 °F 23% 29.81 in 10.0 mi SSE 5.8 mph - N/A   Clear
3:15 PM 68.0 °F - 28.4 °F 23% 29.80 in 10.0 mi South 5.8 mph - N/A   Clear
3:35 PM 68.0 °F - 28.4 °F 23% 29.79 in 10.0 mi SE 3.5 mph - N/A   Clear
3:55 PM 68.0 °F - 28.4 °F 23% 29.79 in 10.0 mi NE 3.5 mph - N/A   Clear
4:15 PM 68.0 °F - 26.6 °F 21% 29.77 in 10.0 mi ENE 4.6 mph - N/A   Clear
4:35 PM 68.0 °F - 26.6 °F 21% 29.76 in 10.0 mi East 5.8 mph - N/A   Scattered Clouds
4:55 PM 68.0 °F - 26.6 °F 21% 29.77 in 10.0 mi SE 4.6 mph - N/A   Partly Cloudy
5:15 PM 68.0 °F - 28.4 °F 23% 29.76 in 10.0 mi SSE 9.2 mph - N/A   Partly Cloudy
5:35 PM 68.0 °F - 28.4 °F 23% 29.76 in 10.0 mi SW 6.9 mph 18.4 mph N/A   Scattered Clouds
5:55 PM 68.0 °F - 28.4 °F 23% 29.77 in 10.0 mi SW 8.1 mph 24.2 mph N/A   Mostly Cloudy
6:15 PM 66.2 °F - 30.2 °F 26% 29.76 in 10.0 mi WSW 10.4 mph 21.9 mph N/A   Scattered Clouds
6:35 PM 66.2 °F - 32.0 °F 28% 29.77 in 10.0 mi SW 12.7 mph - N/A   Partly Cloudy
6:55 PM 64.4 °F - 32.0 °F 30% 29.77 in 10.0 mi WSW 8.1 mph 21.9 mph N/A   Partly Cloudy
7:15 PM 64.4 °F - 35.6 °F 34% 29.77 in 10.0 mi West 5.8 mph - N/A   Mostly Cloudy
7:35 PM 62.6 °F - 37.4 °F 39% 29.78 in 10.0 mi West 10.4 mph 23.0 mph N/A   Overcast
7:55 PM 57.2 °F - 46.4 °F 67% 29.80 in 8.0 mi WNW 13.8 mph 21.9 mph N/A   Overcast
8:15 PM 57.2 °F - 48.2 °F 72% 29.80 in 10.0 mi WNW 9.2 mph - N/A   Mostly Cloudy
8:35 PM 57.2 °F - 48.2 °F 72% 29.80 in 7.0 mi Calm Calm - N/A   Mostly Cloudy
8:55 PM 55.4 °F - 50.0 °F 82% 29.80 in 10.0 mi Calm Calm - N/A   Mostly Cloudy
9:15 PM 53.6 °F - 53.6 °F 100% 29.78 in 10.0 mi ESE 5.8 mph - N/A   Overcast
9:35 PM 53.6 °F - 53.6 °F 100% 29.79 in 10.0 mi East 3.5 mph - N/A   Overcast
9:55 PM 53.6 °F - 53.6 °F 100% 29.82 in 7.0 mi WNW 3.5 mph - 0.01 in   Overcast
10:15 PM 53.6 °F - 53.6 °F 100% 29.81 in 5.0 mi East 4.6 mph - 0.02 in   Overcast
10:35 PM 51.8 °F - 51.8 °F 100% 29.80 in 9.0 mi East 6.9 mph - 0.03 in   Overcast
10:55 PM 51.8 °F - 51.8 °F 100% 29.81 in 10.0 mi NE 4.6 mph - 0.03 in   Overcast
11:15 PM 51.8 °F - 51.8 °F 100% 29.81 in 10.0 mi ESE 5.8 mph - N/A   Overcast
11:35 PM 50.0 °F - 50.0 °F 100% 29.80 in 8.0 mi SE 4.6 mph - N/A   Overcast
11:55 PM 50.0 °F - 50.0 °F 100% 29.80 in 10.0 mi Calm Calm - N/A   Overcast